Wahpeton, ND

6:08 AM CST on February 11, 2016 (GMT -0600)
Stern

Weather History for KBWP - October, 2011

Change the Weather History Date:

Tuesday, October 4, 2011

  Actual Average (KFFM) Record (KFFM)
Temperature  
Mean Temperature 70 °F -  
Max Temperature 86 °F 62 °F 84 °F (1975)
Min Temperature 53 °F 37 °F 22 °F (1968)
Cooling Degree Days 4    
Growing Degree Days 20 (Base 50)    
Moisture  
Dew Point 38 °F    
Average Humidity 37    
Maximum Humidity 54    
Minimum Humidity 19    
Precipitation  
Precipitation 0.00 in - - ()
Sea Level Pressure  
Sea Level Pressure 29.99 in    
Wind  
Wind Speed 11 mph (SSE)    
Max Wind Speed 22 mph    
Max Gust Speed 29 mph    
Visibility 10 miles    
Events      
Averages and records for this station are not official NWS values.
T = Trace of Precipitation, MM = Missing Value Source: NWS Daily Summary

Daily Weather History Graph

Daily Weather History Graph

Search for Another Location

Airport or City:

Trip Planner

Search our weather history database for the weather conditions in past years. The results will help you decide how hot, cold, wet, or windy it might be!

Date:

Astronomy

Oct. 04, 2011 Rise Set
Actual Time 7:28 AM CDT 7:01 PM CDT
Civil Twilight 6:58 AM CDT 7:30 PM CDT
Nautical Twilight 6:23 AM CDT 8:05 PM CDT
Astronomical Twilight 5:48 AM CDT 8:40 PM CDT
Moon 3:24 PM CDT (10/4) No Moon Set
Length of Visible Light 12h 32m
Length of Day
11h 32m
First Quarter, 56% of the Moon is Illuminated
Oct 4
First Quarter
Oct 11
Full
Oct 19
Last Quarter
Oct 26
New
Nov 2
First Quarter

Hourly Weather History & Observations

Time (CDT) Temp. Dew Point Humidity Pressure Visibility Wind Dir Wind Speed Gust Speed Precip Events Conditions
12:15 AM 60.8 °F 35.6 °F 39% 30.05 in 10.0 mi SE 5.8 mph - N/A   Clear
12:35 AM 59.0 °F 35.6 °F 42% 30.05 in 10.0 mi SE 5.8 mph - N/A   Clear
12:55 AM 59.0 °F 35.6 °F 42% 30.05 in 10.0 mi SE 6.9 mph - N/A   Clear
1:15 AM 59.0 °F 35.6 °F 42% 30.05 in 10.0 mi SE 8.1 mph - N/A   Clear
1:35 AM 59.0 °F 35.6 °F 42% 30.05 in 10.0 mi SE 8.1 mph - N/A   Clear
1:55 AM 59.0 °F 35.6 °F 42% 30.04 in 10.0 mi SE 9.2 mph - N/A   Clear
2:15 AM 59.0 °F 35.6 °F 42% 30.04 in 10.0 mi SSE 10.4 mph - N/A   Clear
2:35 AM 59.0 °F 35.6 °F 42% 30.04 in 10.0 mi SE 10.4 mph - N/A   Clear
2:55 AM 59.0 °F 37.4 °F 45% 30.05 in 10.0 mi SSE 9.2 mph - N/A   Clear
3:15 AM 59.0 °F 37.4 °F 45% 30.04 in 10.0 mi SSE 9.2 mph - N/A   Clear
3:35 AM 59.0 °F 37.4 °F 45% 30.04 in 10.0 mi SSE 11.5 mph - N/A   Clear
3:55 AM 59.0 °F 37.4 °F 45% 30.04 in 10.0 mi SSE 10.4 mph - N/A   Clear
4:15 AM 59.0 °F 37.4 °F 45% 30.04 in 10.0 mi SSE 11.5 mph - N/A   Clear
4:35 AM 57.2 °F 37.4 °F 48% 30.04 in 10.0 mi SSE 9.2 mph - N/A   Clear
4:55 AM 57.2 °F 37.4 °F 48% 30.04 in 10.0 mi SSE 10.4 mph - N/A   Clear
5:15 AM 55.4 °F 37.4 °F 51% 30.04 in 10.0 mi SE 11.5 mph - N/A   Clear
5:55 AM 55.4 °F 37.4 °F 51% 30.04 in 10.0 mi SE 9.2 mph - N/A   Clear
6:15 AM 55.4 °F 37.4 °F 51% 30.04 in 10.0 mi SE 10.4 mph - N/A   Clear
6:35 AM 53.6 °F 37.4 °F 54% 30.03 in 10.0 mi SE 11.5 mph - N/A   Clear
6:55 AM 53.6 °F 37.4 °F 54% 30.04 in 10.0 mi SE 11.5 mph - N/A   Clear
7:15 AM 53.6 °F 37.4 °F 54% 30.03 in 10.0 mi SE 11.5 mph - N/A   Clear
7:35 AM 53.6 °F 37.4 °F 54% 30.03 in 10.0 mi SE 10.4 mph - N/A   Clear
7:55 AM 53.6 °F 37.4 °F 54% 30.04 in 10.0 mi SE 9.2 mph - N/A   Clear
8:15 AM 53.6 °F 37.4 °F 54% 30.04 in 10.0 mi SE 9.2 mph - N/A   Clear
8:35 AM 55.4 °F 39.2 °F 54% 30.04 in 10.0 mi SE 10.4 mph - N/A   Clear
8:55 AM 57.2 °F 39.2 °F 51% 30.04 in 10.0 mi SE 10.4 mph - N/A   Clear
9:15 AM 59.0 °F 39.2 °F 48% 30.03 in 10.0 mi SE 11.5 mph 16.1 mph N/A   Clear
9:35 AM 60.8 °F 39.2 °F 45% 30.03 in 10.0 mi SSE 13.8 mph 17.3 mph N/A   Clear
9:55 AM 62.6 °F 39.2 °F 42% 30.03 in 10.0 mi SSE 13.8 mph - N/A   Clear
10:15 AM 64.4 °F 39.2 °F 40% 30.03 in 10.0 mi SSE 13.8 mph - N/A   Clear
10:35 AM 68.0 °F 39.2 °F 35% 30.03 in 10.0 mi SSE 13.8 mph - N/A   Clear
11:15 AM 69.8 °F 39.2 °F 33% 30.01 in 10.0 mi SSE 15.0 mph - N/A   Clear
11:35 AM 71.6 °F 39.2 °F 31% 30.00 in 10.0 mi SSE 15.0 mph - N/A   Clear
11:55 AM 73.4 °F 39.2 °F 29% 29.99 in 10.0 mi SE 15.0 mph - N/A   Clear
12:15 PM 75.2 °F 39.2 °F 27% 29.99 in 10.0 mi SSE 15.0 mph - N/A   Clear
12:35 PM 77.0 °F 39.2 °F 26% 29.99 in 10.0 mi South 16.1 mph 20.7 mph N/A   Clear
12:55 PM 78.8 °F 41.0 °F 26% 29.98 in 10.0 mi SSE 16.1 mph - N/A   Clear
1:15 PM 80.6 °F 39.2 °F 23% 29.97 in 10.0 mi SE 17.3 mph 21.9 mph N/A   Clear
1:35 PM 80.6 °F 39.2 °F 23% 29.96 in 10.0 mi SSE 18.4 mph 21.9 mph N/A   Clear
1:55 PM 80.6 °F 39.2 °F 23% 29.94 in 10.0 mi SSE 20.7 mph 25.3 mph N/A   Clear
2:15 PM 82.4 °F 39.2 °F 21% 29.93 in 10.0 mi South 18.4 mph 26.5 mph N/A   Clear
2:35 PM 82.4 °F 39.2 °F 21% 29.93 in 10.0 mi SSE 19.6 mph - N/A   Clear
2:55 PM 82.4 °F 39.2 °F 21% 29.93 in 10.0 mi South 17.3 mph 25.3 mph N/A   Clear
3:15 PM 84.2 °F 39.2 °F 20% 29.92 in 10.0 mi SSE 21.9 mph 28.8 mph N/A   Clear
3:35 PM 86.0 °F 39.2 °F 19% 29.92 in 10.0 mi SSE 19.6 mph 24.2 mph N/A   Clear
3:55 PM 86.0 °F 39.2 °F 19% 29.92 in 10.0 mi South 18.4 mph 24.2 mph N/A   Clear
4:15 PM 82.4 °F 39.2 °F 21% 29.91 in 10.0 mi SSE 17.3 mph 24.2 mph N/A   Clear
4:35 PM 82.4 °F 39.2 °F 21% 29.90 in 10.0 mi South 16.1 mph 23.0 mph N/A   Clear
4:55 PM 82.4 °F 41.0 °F 23% 29.90 in 10.0 mi South 12.7 mph 24.2 mph N/A   Clear
5:15 PM 80.6 °F 39.2 °F 23% 29.90 in 10.0 mi SSE 15.0 mph 25.3 mph N/A   Clear
5:35 PM 80.6 °F 39.2 °F 23% 29.90 in 10.0 mi SSE 12.7 mph 19.6 mph N/A   Clear
5:55 PM 80.6 °F 41.0 °F 24% 29.89 in 10.0 mi SSE 12.7 mph - N/A   Clear
6:15 PM 80.6 °F 41.0 °F 24% 29.89 in 10.0 mi SSE 16.1 mph 21.9 mph N/A   Clear
6:35 PM 80.6 °F 41.0 °F 24% 29.89 in 10.0 mi SSE 16.1 mph - N/A   Clear
6:55 PM 78.8 °F 41.0 °F 26% 29.89 in 10.0 mi SSE 15.0 mph - N/A   Clear
7:15 PM 77.0 °F 41.0 °F 28% 29.90 in 10.0 mi SSE 11.5 mph - N/A   Clear
7:55 PM 73.4 °F 41.0 °F 31% 29.90 in 10.0 mi SE 9.2 mph - N/A   Clear
8:15 PM 71.6 °F 41.0 °F 33% 29.90 in 10.0 mi SE 9.2 mph - N/A   Clear
8:35 PM 71.6 °F 42.8 °F 35% 29.90 in 10.0 mi SE 10.4 mph - N/A   Clear
8:55 PM 69.8 °F 42.8 °F 38% 29.90 in 10.0 mi SE 11.5 mph - N/A   Clear
9:35 PM 69.8 °F 42.8 °F 38% 29.91 in 10.0 mi SE 11.5 mph - N/A   Clear
9:55 PM 68.0 °F 42.8 °F 40% 29.91 in 10.0 mi SE 10.4 mph - N/A   Clear
10:15 PM 68.0 °F 42.8 °F 40% 29.91 in 10.0 mi SE 11.5 mph - N/A   Clear
10:35 PM 68.0 °F 42.8 °F 40% 29.90 in 10.0 mi SE 12.7 mph - N/A   Clear
10:55 PM 68.0 °F 42.8 °F 40% 29.90 in 10.0 mi SSE 13.8 mph - N/A   Clear
11:15 PM 68.0 °F 42.8 °F 40% 29.90 in 10.0 mi SE 12.7 mph - N/A   Clear
11:35 PM 68.0 °F 42.8 °F 40% 29.89 in 10.0 mi SE 12.7 mph 18.4 mph N/A   Clear